Location: Bear Creek
(32.6062°N, 97.4945°W)
Time: 18:21:22
(UTC+00:00)

Daily predictions for brighter satellites

Satellite Brightness Start Highest point End
(mag) Time Altitude Azimuth Time Altitude Azimuth Time Altitude Azimuth
Lacrosse 5 rocket 3.5 12:01:57 10° N 12:03:49 14° NE 12:05:40 10° ENE
Lacrosse 4 Rocket 4.0 12:02:27 10° NNE 12:04:42 15° ENE 12:06:56 10° E
Okean 1 Rocket 3.4 12:01:00 10° N 12:05:18 66° E 12:09:33 10° SSE
Meteor 2-17 Rocket 4.4 12:00:51 10° SSW 12:06:50 66° W 12:12:55 10° N
Hubble Space Telescope 2.1 12:03:35 10° SW 12:06:58 31° SSE 12:10:21 10° ESE
ATLAS 3B R/B 4.0 12:03:11 16° W 12:07:19 24° NW 12:13:23 10° N
Helios 1A Rocket 2.3 12:05:52 10° S 12:09:13 73° WSW 12:12:33 10° NNW
Sich 1 Rocket 3.8 12:05:32 10° N 12:10:01 78° E 12:14:27 10° S
Cosmos 968 Rocket 3.5 12:04:50 10° NNW 12:10:02 66° WSW 12:15:11 10° S
CENTAUR R/B 3.5 12:02:30 10° NNW 12:11:25 89° ENE 12:20:57 10° SSE
COSMO-SKYMED 1 2.4 12:08:14 10° S 12:12:20 83° WSW 12:16:28 10° NNW
Cosmos 1484 Rocket 2.4 12:12:19 10° N 12:15:49 76° W 12:19:15 10° SSW
IRS-1D 4.3 12:15:54 10° NNW 12:19:56 26° WNW 12:23:58 10° SW
SL-8 R/B 3.8 12:15:19 10° WSW 12:19:58 55° NW 12:24:39 10° NE
CZ-3 R/B 2.3 12:08:05 10° W 12:22:20 65° S 12:27:18 10° ESE
Cosmos 1812 4.1 12:22:44 11° W 12:22:44 11° W 12:23:26 10° WSW
SJ 16-02 3.2 12:22:31 11° W 12:23:10 11° W 12:24:17 10° WSW
IGS 5A 3.3 12:23:47 10° N 12:27:46 86° WNW 12:31:43 10° SSW
OAO 1 Rocket 4.5 12:23:21 10° W 12:28:38 73° N 12:33:54 10° ENE
Cosmos 1302 Rocket 4.3 12:24:48 10° SW 12:29:38 41° WNW 12:34:31 10° N
Cosmos 1741 Rocket 4.1 12:24:42 10° NNW 12:29:54 59° WSW 12:35:04 10° S
Cosmos 1975 Rocket 3.7 12:26:03 10° S 12:30:16 60° E 12:34:29 10° NNE
USA 234 3.9 12:24:54 10° ESE 12:31:15 54° NE 12:37:35 10° NNW
Cosmos 1992 Rocket 4.0 12:29:03 10° SSW 12:34:14 75° WNW 12:39:27 10° NNE
Cosmos 1441 Rocket 3.3 12:32:03 10° SSW 12:35:12 39° W 12:38:21 10° N
Tsikada Rocket 4.0 12:30:56 10° S 12:37:14 78° W 12:43:39 10° N
Cosmos 1025 Rocket 4.2 12:36:37 10° SW 12:39:57 21° WNW 12:43:19 10° NNW
GOES 2 Rocket 3.9 12:36:27 10° WSW 12:40:26 44° S 12:44:37 10° E
